Hourly Weather Luhnovo

Today, 18 May, Tuesday

Time Temperature Precipitation Wind Pressure Humidity
00:00 +14°C° 0.1 mm 2 mps 748 mmHg 98%
01:00 +14°C° 0.1 mm 2 mps 747 mmHg 98%
02:00 +14°C° 0.1 mm 2 mps 747 mmHg 99%
03:00 +14°C° 0 mm 2 mps 747 mmHg 98%
04:00 +14°C° 0 mm 2 mps 747 mmHg 98%
05:00 +14°C° 0 mm 2 mps 747 mmHg 98%
06:00 +14°C° 0.2 mm 2 mps 747 mmHg 98%
07:00 +15°C° 0.2 mm 2 mps 747 mmHg 98%
08:00 +15°C° 0.2 mm 2 mps 747 mmHg 98%
09:00 +15°C° 0.1 mm 2 mps 747 mmHg 97%
10:00 +15°C° 0.1 mm 2 mps 747 mmHg 97%
11:00 +16°C° 0.1 mm 2 mps 748 mmHg 96%
12:00 +16°C° 0.3 mm 2 mps 748 mmHg 96%
13:00 +16°C° 0.3 mm 2 mps 747 mmHg 96%
14:00 +16°C° 0.3 mm 2 mps 747 mmHg 95%
15:00 +17°C° 0.5 mm 2 mps 747 mmHg 95%
16:00 +17°C° 0.5 mm 2 mps 747 mmHg 94%
17:00 +18°C° 0.5 mm 2 mps 746 mmHg 93%
18:00 +18°C° 1.1 mm 2 mps 746 mmHg 94%
19:00 +17°C° 1.1 mm 2 mps 746 mmHg 94%
20:00 +17°C° 1.1 mm 2 mps 746 mmHg 95%
21:00 +16°C° 0.1 mm 2 mps 746 mmHg 95%
22:00 +16°C° 0.1 mm 2 mps 746 mmHg 95%
23:00 +16°C° 0.1 mm 2 mps 745 mmHg 96%

Tomorrow, 19 May, Wednesday

Time Temperature Precipitation Wind Pressure Humidity
00:00 +16°C° 0 mm 2 mps 745 mmHg 96%
01:00 +15°C° 0 mm 2 mps 745 mmHg 96%
02:00 +15°C° 0 mm 2 mps 745 mmHg 96%
03:00 +14°C° 0.1 mm 3 mps 744 mmHg 97%
04:00 +14°C° 0.1 mm 3 mps 744 mmHg 97%
05:00 +14°C° 0.1 mm 3 mps 744 mmHg 97%
06:00 +15°C° 0.2 mm 4 mps 745 mmHg 95%
07:00 +15°C° 0.2 mm 4 mps 745 mmHg 92%
08:00 +17°C° 0.2 mm 4 mps 745 mmHg 90%
09:00 +18°C° 0.2 mm 4 mps 745 mmHg 87%
10:00 +19°C° 0.2 mm 4 mps 746 mmHg 83%
11:00 +19°C° 0.2 mm 4 mps 746 mmHg 80%
12:00 +19°C° 0.6 mm 4 mps 746 mmHg 83%
13:00 +18°C° 0.6 mm 4 mps 746 mmHg 86%
14:00 +18°C° 0.6 mm 4 mps 747 mmHg 89%
15:00 +17°C° 0.2 mm 4 mps 747 mmHg 89%
16:00 +17°C° 0.2 mm 3 mps 747 mmHg 89%
17:00 +16°C° 0.2 mm 3 mps 747 mmHg 90%
18:00 +14°C° 0 mm 3 mps 748 mmHg 91%
19:00 +13°C° 0 mm 3 mps 748 mmHg 91%
20:00 +12°C° 0 mm 3 mps 749 mmHg 92%
21:00 +11°C° 0 mm 3 mps 749 mmHg 92%
22:00 +11°C° 0 mm 3 mps 750 mmHg 93%
23:00 +11°C° 0 mm 3 mps 750 mmHg 93%

Day after tomorrow, 20 May, Thursday

Time Temperature Precipitation Wind Pressure Humidity
00:00 +10°C° 0 mm 3 mps 750 mmHg 93%
01:00 +10°C° 0 mm 3 mps 751 mmHg 93%
02:00 +9°C° 0 mm 3 mps 751 mmHg 94%
03:00 +9°C° 0 mm 2 mps 751 mmHg 93%
04:00 +9°C° 0 mm 2 mps 751 mmHg 93%
05:00 +9°C° 0 mm 2 mps 752 mmHg 93%
06:00 +9°C° 0 mm 2 mps 752 mmHg 88%
07:00 +10°C° 0 mm 2 mps 752 mmHg 83%
08:00 +11°C° 0 mm 3 mps 752 mmHg 79%
09:00 +11°C° 0.1 mm 3 mps 752 mmHg 79%
10:00 +11°C° 0.1 mm 3 mps 752 mmHg 79%
11:00 +11°C° 0.1 mm 3 mps 752 mmHg 79%
12:00 +11°C° 0.2 mm 3 mps 752 mmHg 82%
13:00 +10°C° 0.2 mm 4 mps 752 mmHg 85%
14:00 +10°C° 0.2 mm 4 mps 752 mmHg 87%
15:00 +10°C° 0 mm 4 mps 752 mmHg 86%
16:00 +10°C° 0 mm 4 mps 751 mmHg 85%
17:00 +10°C° 0 mm 5 mps 751 mmHg 84%
18:00 +10°C° 0 mm 5 mps 751 mmHg 83%
19:00 +10°C° 0 mm 5 mps 750 mmHg 81%
20:00 +9°C° 0 mm 6 mps 750 mmHg 79%
21:00 +9°C° 0 mm 6 mps 750 mmHg 78%
22:00 +9°C° 0 mm 6 mps 749 mmHg 77%
23:00 +9°C° 0 mm 6 mps 748 mmHg 76%

21 May, Friday

Time Temperature Precipitation Wind Pressure Humidity
00:00 +9°C° 3.2 mm 6 mps 748 mmHg 83%
01:00 +8°C° 3.2 mm 6 mps 748 mmHg 89%
02:00 +8°C° 3.2 mm 5 mps 748 mmHg 95%
03:00 +8°C° 3.4 mm 6 mps 748 mmHg 95%
04:00 +8°C° 3.4 mm 6 mps 747 mmHg 95%
05:00 +8°C° 3.4 mm 6 mps 747 mmHg 96%
06:00 +8°C° 1.6 mm 6 mps 747 mmHg 96%
07:00 +8°C° 1.6 mm 6 mps 747 mmHg 96%
08:00 +8°C° 1.6 mm 6 mps 747 mmHg 96%
09:00 +8°C° 1.1 mm 6 mps 747 mmHg 96%
10:00 +8°C° 1.1 mm 6 mps 747 mmHg 95%
11:00 +8°C° 1.1 mm 7 mps 747 mmHg 95%
12:00 +8°C° 0.8 mm 6 mps 748 mmHg 95%
13:00 +8°C° 0.8 mm 6 mps 748 mmHg 94%
14:00 +8°C° 0.8 mm 6 mps 748 mmHg 94%
15:00 +8°C° 0.7 mm 5 mps 749 mmHg 94%
16:00 +8°C° 0.7 mm 4 mps 749 mmHg 95%
17:00 +9°C° 0.7 mm 3 mps 749 mmHg 95%
18:00 +10°C° 0.2 mm 3 mps 750 mmHg 94%
19:00 +10°C° 0.2 mm 3 mps 750 mmHg 94%
20:00 +10°C° 0.2 mm 3 mps 750 mmHg 94%
21:00 +8°C° 0 mm 4 mps 750 mmHg 92%
22:00 +8°C° 0 mm 4 mps 750 mmHg 91%
23:00 +7°C° 0 mm 4 mps 751 mmHg 89%

22 May, Saturday

Time Temperature Precipitation Wind Pressure Humidity
00:00 +7°C° 0 mm 4 mps 751 mmHg 90%
01:00 +6°C° 0 mm 4 mps 751 mmHg 91%
02:00 +6°C° 0 mm 4 mps 752 mmHg 92%
03:00 +7°C° 0 mm 3 mps 752 mmHg 92%
04:00 +5°C° 0 mm 3 mps 752 mmHg 93%
05:00 +5°C° 0 mm 3 mps 752 mmHg 93%
06:00 +7°C° 0 mm 3 mps 752 mmHg 86%
07:00 +9°C° 0 mm 3 mps 753 mmHg 79%
08:00 +10°C° 0 mm 4 mps 753 mmHg 73%
09:00 +11°C° 0 mm 4 mps 753 mmHg 65%
10:00 +12°C° 0 mm 4 mps 753 mmHg 58%
11:00 +13°C° 0 mm 4 mps 753 mmHg 50%
12:00 +14°C° 0 mm 4 mps 753 mmHg 49%
13:00 +14°C° 0 mm 4 mps 753 mmHg 47%
14:00 +15°C° 0 mm 4 mps 753 mmHg 46%
15:00 +14°C° 0 mm 3 mps 753 mmHg 50%
16:00 +14°C° 0 mm 3 mps 754 mmHg 54%
17:00 +15°C° 0 mm 2 mps 754 mmHg 59%
18:00 +14°C° 0 mm 2 mps 754 mmHg 63%
19:00 +13°C° 0 mm 2 mps 754 mmHg 67%
20:00 +12°C° 0 mm 2 mps 754 mmHg 72%
21:00 +10°C° 0 mm 2 mps 754 mmHg 75%
22:00 +10°C° 0 mm 2 mps 755 mmHg 78%
23:00 +9°C° 0 mm 2 mps 755 mmHg 81%

23 May, Sunday

Time Temperature Precipitation Wind Pressure Humidity
00:00 +8°C° 0 mm 2 mps 755 mmHg 85%
01:00 +8°C° 0 mm 2 mps 755 mmHg 89%
02:00 +7°C° 0 mm 2 mps 755 mmHg 93%
03:00 +8°C° 0 mm 3 mps 755 mmHg 90%
04:00 +8°C° 0 mm 3 mps 755 mmHg 87%
05:00 +9°C° 0 mm 3 mps 755 mmHg 84%
06:00 +11°C° 0 mm 4 mps 755 mmHg 79%
07:00 +12°C° 0 mm 4 mps 755 mmHg 74%
08:00 +14°C° 0 mm 4 mps 755 mmHg 69%
09:00 +15°C° 0 mm 4 mps 755 mmHg 66%
10:00 +17°C° 0 mm 4 mps 755 mmHg 62%
11:00 +18°C° 0 mm 4 mps 756 mmHg 58%
12:00 +18°C° 0.1 mm 4 mps 755 mmHg 58%
13:00 +19°C° 0.1 mm 4 mps 755 mmHg 59%
14:00 +19°C° 0.1 mm 4 mps 755 mmHg 60%
15:00 +18°C° 0.3 mm 4 mps 755 mmHg 63%
16:00 +18°C° 0.3 mm 4 mps 755 mmHg 66%
17:00 +17°C° 0.3 mm 3 mps 755 mmHg 69%
18:00 +16°C° 0.3 mm 3 mps 755 mmHg 74%
19:00 +15°C° 0.3 mm 2 mps 755 mmHg 79%
20:00 +14°C° 0.3 mm 2 mps 755 mmHg 84%
21:00 +13°C° 0.3 mm 2 mps 755 mmHg 88%
22:00 +13°C° 0.3 mm 2 mps 755 mmHg 92%
23:00 +12°C° 0.3 mm 2 mps 755 mmHg 95%
Show more

We Need Your Consent

Meteoprog and our Service Providers may store and access personal data such as cookies, device identifiers or other similar technologies on your device and process such data to personalise content and ads, as well as provide social media features and to analyse the traffic.

  • Store and/or access information on your device

    Cookies, device identifiers or other information can be stored or accessed on your device for the purposes indicated above.

  • Personalised ads and content, ad and content measurement, audience insights, and products development

    Ads and content can be personalised based on a profile. More data can be added to better personalise ads and content. Ad and content performance can be measured. Insights about the audience who saw the ads and content can be derived. Such data can be used to develop or improve user’s experience, systems and software.

By clicking ‘I Agree’ you will allow the use of indicated cookies, device identifiers, web beacons or other similar technologies. Your settings can be changed in the browser on your device.

For certain purposes, legitimate interests may be relied on, rather than consent. You can read more about this in our Privacy and Cookie Policy.